This demonstration page uses our WeatherBlox Daily Observations layout. Learn more.

Left ArrowRight Arrow

39.92423, -83.80882

Hourly Observations for April 11, 2022

Temp ( °F °C ) Dew Point ( °F °C ) Humidity (%) Winds ( mph kmh ) Pressure ( in mb ) Visibility ( mi km ) Precip ( " mm )
12:56 am 00:56 Clear 47 8.3 33 0.6 59 59 SE 12 19 29.92 1013 10 16 0.00 0.00
1:56 am 01:56 Clear 47 8.3 32 0 56 56 SE 12 19 29.91 1013 10 16 0.00 0.00
2:56 am 02:56 Cloudy 49 9.4 32 0 52 52 SSE 13 20 29.88 1012 10 16 0.00 0.00
3:56 am 03:56 Cloudy 51 10.6 33 0.6 50 50 SSE 14 22 29.86 1011 10 16 0.00 0.00
4:56 am 04:56 Cloudy 51 10.6 35 1.7 54 54 SSE 13 20 29.84 1011 10 16 0.00 0.00
5:56 am 05:56 Mostly Cloudy 53 11.7 38 3.3 57 57 S 10 17 29.84 1011 10 16 0.00 0.00
6:56 am 06:56 Partly Cloudy 54 12.2 40 4.4 59 59 S 8 13 29.85 1011 10 16 0.00 0.00
7:56 am 07:56 Mostly Cloudy with Light Rain 56 13.3 42 5.6 60 60 S 7 11 29.86 1011 10 16 0.00 0.00
8:56 am 08:56 Cloudy 59 15 43 6.1 56 56 SSW 10 17 29.85 1011 10 16 0.00 0.00
9:56 am 09:56 Cloudy 61 16.1 47 8.3 60 60 SSW 15 24 29.88 1012 10 16 0.00 0.00
10:56 am 10:56 Mostly Cloudy 61 16.1 48 8.9 63 63 SSW 15 24 29.88 1012 10 16 0.00 0.00
11:56 am 11:56 Cloudy 61 16.1 49 9.4 65 65 SSW 16 26 29.90 1013 10 16 0.00 0.00
12:56 pm 12:56 Cloudy with Light Rain 58 14.4 57 13.9 97 97 WSW 23 37 29.92 1013 10 16 0.00 0.00
1:23 pm 13:23 Cloudy with Rain 55 13 N/A N/A WSW 14 22 29.93 1014 8 13 0.00 0.00
1:56 pm 13:56 Cloudy with Light Rain 57 14 N/A N/A WSW 15 24 29.94 1014 9 14 0.00 0.00
2:25 pm 14:25 Cloudy with Light Rain N/A N/A N/A SW 9 15 N/A 10 16 0.00 0.00
2:27 pm 14:27 Cloudy with Light Rain N/A N/A N/A SSW 8 13 N/A 10 16 0.00 0.00
2:56 pm 14:56 Cloudy N/A N/A N/A SSW 16 26 N/A 10 16 0.00 0.00
3:37 pm 15:37 Cloudy 57 14 N/A N/A SSW 15 24 29.92 1013 10 16 0.00 0.00
3:56 pm 15:56 Cloudy 57 14 N/A N/A SSW 14 22 29.92 1013 10 16 0.00 0.00
4:08 pm 16:08 Cloudy 57 14 N/A N/A SSW 13 20 29.91 1013 10 16 0.00 0.00
4:29 pm 16:29 Cloudy 57 14 N/A N/A SSW 13 20 29.90 1012 10 16 0.00 0.00
4:56 pm 16:56 Cloudy 58 14.4 58 14.4 100 100 SSW 10 17 29.91 1013 10 16 0.00 0.00
5:56 pm 17:56 Cloudy 59 15 59 15 100 100 SW 15 24 29.90 1013 10 16 0.00 0.00
6:17 pm 18:17 Cloudy with Light Rain 57 14 N/A N/A SSW 13 20 29.91 1013 2 3 0.00 0.00
6:38 pm 18:38 Cloudy with Light Rain 57 14 N/A N/A SSW 12 19 29.91 1013 2 3 0.00 0.00
6:46 pm 18:46 Cloudy with Light Rain N/A N/A N/A SSW 12 19 N/A 2 3 0.00 0.00
6:56 pm 18:56 Cloudy with Light Rain N/A N/A N/A SSW 9 15 N/A 2 3 0.00 0.00
7:13 pm 19:13 Cloudy with Light Rain N/A N/A N/A SSW 9 15 N/A 2 3 0.00 0.00
7:23 pm 19:23 Cloudy with Light Rain N/A N/A N/A SSW 12 19 N/A 2 3 0.00 0.00
7:32 pm 19:32 Cloudy with Light Rain N/A N/A N/A SSW 10 17 N/A 2 3 0.00 0.00
7:56 pm 19:56 Cloudy with Light Rain N/A N/A N/A SSW 12 19 N/A 2 3 0.00 0.00
8:17 pm 20:17 Cloudy with Light Rain N/A N/A N/A SSW 13 20 N/A 5 8 0.00 0.00
8:56 pm 20:56 Cloudy N/A N/A N/A SSW 9 15 N/A 10 16 0.00 0.00
9:56 pm 21:56 Cloudy with Light Rain N/A N/A N/A SSW 13 20 N/A 10 16 0.00 0.00
10:35 pm 22:35 Cloudy N/A N/A N/A SW 15 24 N/A 9 14 0.00 0.00
10:56 pm 22:56 Cloudy with Light Rain N/A N/A N/A SSW 13 20 N/A 4 6 0.00 0.00
11:56 pm 23:56 Cloudy with Light Rain N/A N/A N/A SW 14 22 N/A 10 16 0.00 0.00

Powered by AerisWeather